GW1647 Weather Reports


Display with metric or nautical units.
time (UTC)temp
F
wind
direction
speed
MPH
gust
MPH
rain 1hr
in
rain 24hr
in
rain mn
in
humidity
%
barometer
mb
20260831063107 79 0 0.0 0.0 0.00 0.00 0.00 77 1010.1
20260831061605 79 0 0.0 0.0 0.00 0.00 0.00 76 1010.3
20260831060109 79 0 0.0 0.0 0.00 0.00 0.00 76 1010.0
20260831054606 80 0 0.0 1.0 0.00 0.00 0.00 75 1009.9
20260831053058 80 0 0.0 1.0 0.00 0.00 0.00 75 1009.9
20260831051602 80 0 0.0 0.0 0.00 0.00 0.00 75 1009.7
20260831050112 80 0 0.0 0.0 0.00 0.00 0.00 76 1009.7
20260831044608 80 0 0.0 2.0 0.00 0.00 0.00 75 1009.8
20260831043105 82 0 0.0 1.0 0.00 0.00 0.00 72 1009.8
20260831041611 83 0 0.0 0.0 0.00 0.00 0.00 70 1009.6
20260831040110 84 0 0.0 3.0 0.00 0.00 0.00 69 1009.8
20260831034627 84 156 1.0 5.0 0.00 0.00 0.00 69 1009.8
20260831033107 84 157 1.0 4.0 0.00 0.00 0.00 68 1009.9
20260831031608 84 164 1.0 4.0 0.00 0.00 0.00 67 1009.8
20260831030108 85 0 0.0 0.0 0.00 0.00 0.00 64 1009.9
20260831024609 86 0 0.0 0.0 0.00 0.00 0.00 63 1009.9
20260831023111 86 0 0.0 2.0 0.00 0.00 0.00 62 1009.9
20260831021605 86 0 1.0 2.0 0.00 0.00 0.00 62 1009.8
20260831020108 86 0 1.0 3.0 0.00 0.00 0.00 61 1009.7
20260831014604 87 0 0.0 3.0 0.00 0.00 0.00 61 1009.6
20260831013106 87 173 1.0 2.0 0.00 0.00 0.00 59 1009.4
20260831011608 88 0 0.0 2.0 0.00 0.00 0.00 59 1009.3
20260831010128 89 202 1.0 2.0 0.00 0.00 0.00 57 1009.3
20260831004612 89 0 0.0 2.0 0.00 0.00 0.00 57 1009.4
20260831003107 90 0 0.0 2.0 0.00 0.00 0.00 55 1009.4
20260831001607 91 0 0.0 4.0 0.00 0.00 0.00 54 1009.4
20260831000108 91 0 1.0 4.0 0.00 0.00 0.00 53 1009.3
20260830234603 92 200 1.0 8.0 0.00 0.00 0.00 51 1009.3
20260830233102 93 187 1.0 7.0 0.00 0.00 0.00 50 1009.4
20260830231608 93 0 0.0 7.0 0.00 0.00 0.00 50 1009.2
20260830230106 93 0 1.0 10.0 0.00 0.00 0.00 50 1009.1
20260830224609 93 191 1.0 9.0 0.00 0.00 0.00 49 1009.1
20260830223112 93 178 3.0 13.0 0.00 0.00 0.00 49 1009.2
20260830221604 93 228 2.0 11.0 0.00 0.00 0.00 49 1009.2
20260830220107 92 213 2.0 12.0 0.00 0.00 0.00 50 1009.1
20260830214607 92 188 4.0 12.0 0.00 0.00 0.00 48 1009.0
20260830213100 92 209 7.0 14.0 0.00 0.00 0.00 48 1009.0
20260830211608 91 183 5.0 16.0 0.00 0.00 0.00 49 1009.0
20260830210108 91 170 6.0 14.0 0.00 0.00 0.00 48 1009.3
20260830204606 89 196 6.0 17.0 0.00 0.00 0.00 49 1009.5
20260830203100 90 205 8.0 17.0 0.00 0.00 0.00 48 1009.6
20260830201607 90 215 3.0 10.0 0.00 0.00 0.00 51 1009.6
20260830200114 90 204 7.0 17.0 0.00 0.00 0.00 49 1009.4
20260830194613 90 176 7.0 18.0 0.00 0.00 0.00 50 1009.6
20260830193100 90 165 9.0 19.0 0.00 0.00 0.00 50 1010.0
20260830191607 91 184 7.0 20.0 0.00 0.00 0.00 49 1009.8
20260830190106 91 0 2.0 10.0 0.00 0.00 0.00 50 1009.4
20260830184600 90 182 5.0 15.0 0.00 0.00 0.00 49 1009.5
20260830183111 89 183 6.0 14.0 0.00 0.00 0.00 52 1009.5
20260830181608 89 218 4.0 14.0 0.00 0.00 0.00 52 1009.9
20260830180107 88 206 6.0 17.0 0.00 0.00 0.00 54 1010.4
20260830174641 86 182 5.0 21.0 0.00 0.00 0.00 54 1010.4
20260830173106 87 165 8.0 18.0 0.00 0.00 0.00 51 1010.3
20260830171614 86 191 7.0 17.0 0.00 0.00 0.00 52 1010.3
20260830170107 87 177 6.0 16.0 0.00 0.00 0.00 50 1010.1
20260830164614 88 173 8.0 16.0 0.00 0.00 0.00 50 1010.0
20260830163107 88 202 8.0 17.0 0.00 0.00 0.00 49 1010.1
20260830161624 87 203 4.0 12.0 0.00 0.00 0.00 53 1010.3
20260830160105 86 178 5.0 13.0 0.00 0.00 0.00 55 1010.1
20260830154603 85 180 8.0 15.0 0.00 0.00 0.00 54 1010.0
20260830153109 84 178 6.0 12.0 0.00 0.00 0.00 57 1010.3
20260830151605 83 180 4.0 11.0 0.00 0.00 0.00 58 1010.3
20260830150105 83 194 4.0 14.0 0.00 0.00 0.00 59 1010.1
20260830144602 82 175 1.0 12.0 0.00 0.00 0.00 61 1009.9
20260830143111 80 171 4.0 12.0 0.00 0.00 0.00 63 1009.8
20260830141611 78 198 3.0 11.0 0.00 0.00 0.00 65 1009.8
20260830140117 78 190 3.0 12.0 0.00 0.00 0.00 65 1009.9
20260830134601 77 173 4.0 15.0 0.00 0.00 0.00 66 1009.9
20260830133109 77 168 3.0 11.0 0.00 0.00 0.00 66 1010.0
20260830131612 77 164 3.0 13.0 0.00 0.00 0.00 66 1009.9
20260830130106 78 0 1.0 12.0 0.00 0.00 0.00 65 1010.1
20260830124606 78 166 3.0 10.0 0.00 0.00 0.00 63 1010.1
20260830123109 78 0 2.0 13.0 0.00 0.00 0.00 63 1010.0
20260830121609 78 184 1.0 9.0 0.00 0.00 0.00 63 1009.7
20260830120110 78 0 2.0 13.0 0.00 0.00 0.00 63 1009.8
20260830114601 78 0 5.0 11.0 0.00 0.00 0.00 63 1009.7
20260830113058 78 151 3.0 13.0 0.00 0.00 0.00 63 1009.5
20260830111606 78 163 1.0 12.0 0.00 0.00 0.00 63 1009.9
20260830110106 78 0 2.0 8.0 0.00 0.00 0.00 63 1010.0
20260830104607 79 0 1.0 9.0 0.00 0.00 0.00 62 1010.5
20260830103111 79 196 7.0 13.0 0.00 0.00 0.00 61 1010.1
20260830101609 80 232 4.0 16.0 0.00 0.00 0.00 60 1010.4
20260830100105 80 238 3.0 10.0 0.00 0.00 0.00 60 1010.6
20260830094621 80 0 4.0 13.0 0.00 0.00 0.00 59 1010.4
20260830093107 80 192 4.0 11.0 0.00 0.00 0.00 59 1010.5
20260830091604 80 192 4.0 15.0 0.00 0.00 0.00 59 1010.3
20260830090107 80 201 4.0 14.0 0.00 0.00 0.00 59 1009.9
20260830084609 80 178 4.0 12.0 0.00 0.00 0.00 60 1009.8
20260830083114 79 175 5.0 19.0 0.00 0.00 0.00 61 1010.0
20260830081606 79 166 6.0 15.0 0.00 0.00 0.00 61 1009.9
20260830080105 79 183 4.0 15.0 0.00 0.00 0.00 61 1009.8
20260830074611 80 192 4.0 15.0 0.00 0.00 0.00 60 1009.8
20260830073105 80 182 7.0 19.0 0.00 0.00 0.00 61 1009.5
20260830071628 80 183 7.0 14.0 0.00 0.00 0.00 61 1009.7
20260830070106 80 170 6.0 16.0 0.00 0.00 0.00 61 1009.7
20260830064614 80 167 7.0 14.0 0.00 0.00 0.00 62 1009.8